Weather History for Fernandina Beach, FL

Change the Weather History Date:

Tuesday, January 1, 2013

  Actual Average (KJAX) Record (KJAX)
Temperature  
Mean Temperature 60 °F 53 °F  
Max Temperature 75 °F 65 °F 81 °F (1967)
Min Temperature 46 °F 41 °F 21 °F (1918)
Degree Days  
Heating Degree Days 4 12  
Month to date heating degree days 12  
Since 1 July heating degree days 508  
Cooling Degree Days 0 0  
Month to date cooling degree days 0  
Year to date cooling degree days 0  
Growing Degree Days 10 (Base 50)    
Moisture  
Dew Point 56 °F    
Average Humidity 89    
Maximum Humidity 100    
Minimum Humidity 61    
Precipitation  
Precipitation 0.00 in 0.09 in 1.20 in (1881)
Month to date precipitation 0.09  
Year to date precipitation 0.09  
Snow  
Snow 0.00 in 0.00 in 0.00 in (2002)
Month to date snowfall 0.0  
Since 1 July snowfall T  
Snow Depth -    
Sea Level Pressure  
Sea Level Pressure 30.10 in    
Wind  
Wind Speed 3 mph (SSW)    
Max Wind Speed 15 mph    
Max Gust Speed 22 mph    
Visibility 8 miles    
Events      
T = Trace of Precipitation, MM = Missing Value Source: NWS Daily Summary

Daily Weather History Graph

Daily Weather History Graph

Search for Another Location

Airport:

Trip Planner

Search our weather history database for the weather conditions in past years. The results will help you decide how hot, cold, wet, or windy it might be!

Date:

Astronomy

Jan. 01, 2013 Rise Set
Actual Time 7:23 AM EST 5:36 PM EST
Civil Twilight 6:56 AM EST 6:02 PM EST
Nautical Twilight 6:26 AM EST 6:32 PM EST
Astronomical Twilight 5:57 AM EST 7:01 PM EST
Moon 9:46 PM EST (1/1) 9:52 AM EST (1/1)
Length of Visible Light 11h 05m
Length of Day
10h 12m
Waning Gibbous, 83% of the Moon is Illuminated
Jan 1
Waning Gibbous
Jan 4
Last Quarter
Jan 11
New
Jan 18
First Quarter
Jan 26
Full

Hourly Weather History & Observations

Time (EST) Temp. Dew Point Humidity Pressure Visibility Wind Dir Wind Speed Gust Speed Precip Events Conditions
12:15 AM 46.4 °F 46.4 °F 100% 30.22 in 5.0 mi Calm Calm - N/A   Scattered Clouds
12:35 AM 48.2 °F 48.2 °F 100% 30.21 in 4.0 mi Calm Calm - N/A   Mostly Cloudy
12:55 AM 50.0 °F 50.0 °F 100% 30.21 in 5.0 mi Calm Calm - N/A   Overcast
1:15 AM 50.0 °F 50.0 °F 100% 30.20 in 7.0 mi Calm Calm - N/A   Overcast
1:35 AM 50.0 °F 50.0 °F 100% 30.19 in 7.0 mi Calm Calm - N/A   Overcast
1:55 AM 51.8 °F 51.8 °F 100% 30.18 in 7.0 mi Calm Calm - N/A   Overcast
2:15 AM 51.8 °F 51.8 °F 100% 30.16 in 7.0 mi Calm Calm - N/A   Overcast
2:35 AM 51.8 °F 51.8 °F 100% 30.16 in 7.0 mi Calm Calm - N/A   Overcast
2:55 AM 51.8 °F 51.8 °F 100% 30.16 in 7.0 mi Calm Calm - N/A   Mostly Cloudy
3:15 AM 51.8 °F 51.8 °F 100% 30.16 in 5.0 mi Calm Calm - N/A   Mostly Cloudy
3:35 AM 51.8 °F 51.8 °F 100% 30.16 in 4.0 mi Calm Calm - N/A   Scattered Clouds
3:55 AM 50.0 °F 50.0 °F 100% 30.16 in 2.5 mi Calm Calm - N/A   Unknown
4:15 AM 50.0 °F 50.0 °F 100% 30.16 in 3.0 mi Calm Calm - N/A   Overcast
4:35 AM 51.8 °F 51.8 °F 100% 30.16 in 4.0 mi Calm Calm - N/A   Overcast
4:55 AM 51.8 °F 51.8 °F 100% 30.15 in 5.0 mi Calm Calm - N/A   Mostly Cloudy
5:15 AM 50.0 °F 50.0 °F 100% 30.15 in 2.5 mi Calm Calm - N/A   Overcast
5:35 AM 51.8 °F 51.8 °F 100% 30.15 in 7.0 mi Calm Calm - N/A   Overcast
5:55 AM 50.0 °F 50.0 °F 100% 30.13 in 2.5 mi South 4.6 mph - N/A   Scattered Clouds
6:15 AM 51.8 °F 51.8 °F 100% 30.13 in 3.0 mi SSW 4.6 mph - N/A   Unknown
6:35 AM 51.8 °F 51.8 °F 100% 30.12 in 3.0 mi SSW 4.6 mph - N/A   Unknown
6:55 AM 50.0 °F 50.0 °F 100% 30.12 in 3.0 mi SSW 3.5 mph - N/A   Clear
7:15 AM 51.8 °F 51.8 °F 100% 30.13 in 3.0 mi SW 3.5 mph - N/A   Clear
7:35 AM 50.0 °F 50.0 °F 100% 30.12 in 2.0 mi SSW 4.6 mph - N/A   Clear
7:55 AM 51.8 °F 51.8 °F 100% 30.13 in 2.5 mi SSW 4.6 mph - N/A   Clear
8:15 AM 53.6 °F 53.6 °F 100% 30.13 in 3.0 mi SSW 3.5 mph - N/A   Mostly Cloudy
8:35 AM 55.4 °F 55.4 °F 100% 30.14 in 3.0 mi Calm Calm - N/A   Overcast
8:55 AM 55.4 °F 55.4 °F 100% 30.15 in 4.0 mi SSW 4.6 mph - N/A   Overcast
9:15 AM 57.2 °F 57.2 °F 100% 30.15 in 5.0 mi SSW 4.6 mph - N/A   Overcast
9:35 AM 59.0 °F 59.0 °F 100% 30.15 in 5.0 mi SSW 5.8 mph - N/A   Overcast
9:55 AM 59.0 °F 59.0 °F 100% 30.16 in 5.0 mi SSW 4.6 mph - N/A   Overcast
10:15 AM 60.8 °F 60.8 °F 100% 30.16 in 7.0 mi SW 4.6 mph - N/A   Overcast
10:35 AM 62.6 °F 60.8 °F 94% 30.16 in 7.0 mi SW 5.8 mph - N/A   Overcast
10:55 AM 64.4 °F 60.8 °F 88% 30.15 in 10.0 mi SSW 9.2 mph - N/A   Mostly Cloudy
11:15 AM 68.0 °F 60.8 °F 78% 30.14 in 10.0 mi SW 8.1 mph - N/A   Scattered Clouds
11:35 AM 69.8 °F 60.8 °F 73% 30.13 in 10.0 mi SW 11.5 mph 17.3 mph N/A   Clear
11:55 AM 71.6 °F 60.8 °F 69% 30.12 in 10.0 mi SW 13.8 mph 18.4 mph N/A   Clear
12:15 PM 71.6 °F 60.8 °F 69% 30.10 in 10.0 mi SW 12.7 mph 21.9 mph N/A   Clear
12:35 PM 73.4 °F 60.8 °F 65% 30.09 in 10.0 mi SW 15.0 mph 20.7 mph N/A   Clear
12:55 PM 73.4 °F 60.8 °F 65% 30.08 in 10.0 mi SW 11.5 mph 16.1 mph N/A   Clear
1:15 PM 73.4 °F 60.8 °F 65% 30.07 in 10.0 mi SW 11.5 mph 19.6 mph N/A   Clear
1:35 PM 75.2 °F 60.8 °F 61% 30.06 in 10.0 mi SW 15.0 mph 19.6 mph N/A   Clear
1:55 PM 73.4 °F 60.8 °F 65% 30.05 in 10.0 mi SW 12.7 mph 18.4 mph N/A   Clear
2:15 PM 75.2 °F 60.8 °F 61% 30.05 in 10.0 mi SW 11.5 mph - N/A   Clear
2:35 PM 73.4 °F 60.8 °F 65% 30.04 in 10.0 mi SW 12.7 mph - N/A   Scattered Clouds
2:55 PM 75.2 °F 60.8 °F 61% 30.04 in 10.0 mi SW 10.4 mph - N/A   Scattered Clouds
3:15 PM 73.4 °F 60.8 °F 65% 30.04 in 10.0 mi SW 9.2 mph - N/A   Scattered Clouds
3:35 PM 73.4 °F 60.8 °F 65% 30.03 in 10.0 mi SW 10.4 mph - N/A   Scattered Clouds
3:55 PM 73.4 °F 60.8 °F 65% 30.03 in 10.0 mi SW 10.4 mph - N/A   Scattered Clouds
4:15 PM 73.4 °F 60.8 °F 65% 30.03 in 10.0 mi SW 9.2 mph 16.1 mph N/A   Clear
4:35 PM 73.4 °F 60.8 °F 65% 30.03 in 10.0 mi WSW 6.9 mph 16.1 mph N/A   Scattered Clouds
4:55 PM 73.4 °F 60.8 °F 65% 30.03 in 10.0 mi WSW 5.8 mph - N/A   Mostly Cloudy
5:15 PM 71.6 °F 60.8 °F 69% 30.04 in 10.0 mi SW 5.8 mph - N/A   Scattered Clouds
5:35 PM 68.0 °F 60.8 °F 78% 30.03 in 10.0 mi SSW 4.6 mph - N/A   Clear
5:55 PM 64.4 °F 59.0 °F 83% 30.02 in 10.0 mi SSW 5.8 mph - N/A   Clear
6:15 PM 62.6 °F 59.0 °F 88% 30.03 in 10.0 mi SW 3.5 mph - N/A   Clear
6:35 PM 62.6 °F 59.0 °F 88% 30.03 in 10.0 mi SSW 3.5 mph - N/A   Clear
6:55 PM 62.6 °F 59.0 °F 88% 30.04 in 10.0 mi Calm Calm - N/A   Clear
7:15 PM 60.8 °F 59.0 °F 94% 30.03 in 10.0 mi South 3.5 mph - N/A   Clear
7:35 PM 60.8 °F 59.0 °F 94% 30.03 in 10.0 mi SSW 3.5 mph - N/A   Clear
7:55 PM 60.8 °F 59.0 °F 94% 30.03 in 10.0 mi SSW 4.6 mph - N/A   Clear
8:15 PM 60.8 °F 59.0 °F 94% 30.03 in 10.0 mi South 4.6 mph - N/A   Clear
8:35 PM 60.8 °F 59.0 °F 94% 30.03 in 10.0 mi SSW 4.6 mph - N/A   Clear
8:55 PM 59.0 °F 59.0 °F 100% 30.03 in 10.0 mi SSW 4.6 mph - N/A   Clear
9:15 PM 59.0 °F 57.2 °F 94% 30.02 in 10.0 mi South 5.8 mph - N/A   Clear
9:35 PM 59.0 °F 59.0 °F 100% 30.03 in 10.0 mi SSW 5.8 mph - N/A   Clear
9:55 PM 59.0 °F 57.2 °F 94% 30.03 in 10.0 mi SSW 5.8 mph - N/A   Clear
10:15 PM 59.0 °F 59.0 °F 100% 30.03 in 10.0 mi SSW 4.6 mph - N/A   Clear
10:35 PM 59.0 °F 59.0 °F 100% 30.03 in 10.0 mi SSW 4.6 mph - N/A   Clear
10:55 PM 57.2 °F 57.2 °F 100% 30.02 in 10.0 mi SSW 4.6 mph - N/A   Scattered Clouds
11:15 PM 57.2 °F 57.2 °F 100% 30.01 in 10.0 mi SSW 4.6 mph - N/A   Scattered Clouds
11:35 PM 57.2 °F 57.2 °F 100% 30.01 in 10.0 mi SSW 5.8 mph - N/A   Clear
11:55 PM 57.2 °F 57.2 °F 100% 30.00 in 10.0 mi SSW 4.6 mph - N/A   Clear